sat.trackr.live / text

‹ back to catalog

THEOS

NORAD 33396 · 2008-049A

PAYLOAD ACTIVE UNKNOWN

§ Identity

Operator
Country
THAI
Launch date
2008-10-01
Launch site
DLS
Launch vehicle
Mass (kg)
RCS (m²)
2.84

Purposes: earth_obs

External: N2YO · Heavens-Above · Gunter

§ Orbital elements

Epoch: 2026-09-12T04:37:41.904768Z

Period
101.40 min
Inclination
98.5495°
Eccentricity
0.0001326
Mean motion
14.20143563 rev/d
Perigee alt
823.9 km
Apogee alt
825.8 km
Semi-major
7,203.0 km
B*
1.4060e-4
RAAN
309.6149°
Arg perigee
89.3391°
Mean anomaly
270.7938°
Rev number
93,031

§ Raw data

THEOS1 33396U 08049A   26255.19284612  .00000258  00000+0  14060-3 0  99962 33396  98.5495 309.6149 0001326  89.3391 270.7938 14.20143563930314

JSON: /api/v1/satellites/33396 · /tle

For live sub-satellite position, see the globe view (requires WebGL).

§ Visibility from observer

Set your observer location to see the next 7 days of passes ≥ 10°. The values pass through the URL so the page stays shareable.

No JS? Fill the form by hand. The geolocation button needs JavaScript.

§ Radio — SatNOGS DB

ModeDescriptionDownlinkUplink
BPSK S-Band Telemetry 2.211 GHz

1 transmitter · refreshed weekly from db.satnogs.org